Regional Weather Roundup
Issued by NWS Memphis, TN

Home | Current Version | Previous Version | Text Only | Print | Product List | Glossary On
Versions: 1 2 3 4 5 6 7 8 9 10 11 12 13 14 15 16 17 18 19 20 21 22 23 24 25 26 27 28 29 30 31 32 33 34 35 36 37 38 39 40 41 42 43 44 45 46 47 48 49 50
000
ASUS44 KMEG 161110
RWRMEG
MEMPHIS CWA HOURLY WEATHER ROUNDUP
NATIONAL WEATHER SERVICE MEMPHIS TN
600 AM CDT TUE SEP 16 2014

...WEST TENNESSEE...

CITY           SKY/WX    TMP DP  RH WIND       PRES   REMARKS
MEMPHIS INTL   PTCLDY    69  64  84 CALM      30.11R
NWS MEMPHIS      N/A     66 N/A N/A MISG        N/A
JACKSON        PTCLDY    62  60  93 CALM      30.11S
LEXINGTON        N/A     61  61 100 CALM      30.10S VSB 1/2
SAVANNAH       CLEAR     63  63 100 CALM      30.12R
DYERSBURG      CLOUDY    66  57  72 NE7       30.12S
UNION CITY     CLOUDY    64  64 100 N7        30.12S
PARIS          CLOUDY    64  63  94 N3        30.13R
HUNTINGDON     MOCLDY    63  62  96 N3        30.12R


...EASTERN ARKANSAS...

CITY           SKY/WX    TMP DP  RH WIND       PRES   REMARKS
JONESBORO      CLOUDY    70  66  88 NE7       30.12S
WEST MEMPHIS   PTCLDY    66  66 100 CALM      30.10R
BATESVILLE     CLOUDY    66  64  94 CALM      30.13S
NEWPORT        PTCLDY    67  66  96 NE8       30.13S
WALNUT RIDGE   CLOUDY    61  61 100 NE7       30.13R
BLYTHEVILLE    CLOUDY    67  66  97 N8        30.12S
SEARCY         PTCLDY    67  66  96 CALM      30.13R
STUTTGART      CLOUDY    70  66  88 NE3       30.11S
PINE BLUFF     CLOUDY    70  68  93 CALM      30.12R
MONTICELLO     CLOUDY    70  67  90 NW3       30.11R


...NORTH MISSISSIPPI...

CITY           SKY/WX    TMP DP  RH WIND       PRES   REMARKS
TUPELO         CLOUDY    72  67  84 CALM      30.11R
OXFORD         CLOUDY    68  66  94 CALM      30.13S
OLIVE BRANCH   CLEAR     66  66 100 CALM      30.11S
CLARKSDALE     MOCLDY    68  68 100 CALM      30.11S
CORINTH        FOG       64  63  94 CALM      30.11R VSB 1/4
GRENADA        CLOUDY    70  68  94 CALM      30.11S
GREENWOOD      CLOUDY    71  69  93 N5        30.10R
COLUMBUS       LGT RAIN  72  71  96 NW2       30.10R
STARKVILLE     CLOUDY    70  68  94 CALM      30.10R
GOLDEN TRIANGL CLOUDY    73  66  78 N5        30.10R


...SOUTHEAST MISSOURI...

CITY           SKY/WX    TMP DP  RH WIND       PRES   REMARKS
WEST PLAINS    CLOUDY    63  57  81 NE8       30.19R
POPLAR BLUFF   CLOUDY    65  56  72 N6        30.15R
CAPE GIRARDEAU CLOUDY    62  56  80 N12       30.16R


...NORTHWEST ALABAMA...

CITY           SKY/WX    TMP DP  RH WIND       PRES   REMARKS
MUSCLE SHOALS  PTCLDY    67  65  93 CALM      30.12R FOG


...MIDDLE TENNESSEE...

CITY           SKY/WX    TMP DP  RH WIND       PRES   REMARKS
NASHVILLE      CLOUDY    67  64  90 CALM      30.11R
CLARKSVILLE    CLOUDY    67  64  90 NW6       30.11R
DICKSON        MOCLDY    66  63  88 NW3       30.11R
COLUMBIA       CLEAR     63  63 100 CALM      30.10S
LEWISBURG      MOCLDY    62  61  97 CALM      30.12R


...WESTERN KENTUCKY...

CITY           SKY/WX    TMP DP  RH WIND       PRES   REMARKS
PADUCAH        CLOUDY    64  59  83 N10       30.14R
FORT CAMPBELL  CLOUDY    67  67 100 N6        30.11R


...CENTRAL ARKANSAS...

CITY           SKY/WX    TMP DP  RH WIND       PRES   REMARKS
LITTLE ROCK    CLOUDY    72  66  81 NW3       30.12R


SKY/WX REPORTED AS FAIR MEANS FEW OR NO CLOUDS BELOW
12 THOUSAND FEET.



USA.gov is the U.S. government's official web portal to all federal, state and local government web resources and services.